Weather History for Carbondale, IL

Change the Weather History Date:

Wednesday, February 20, 2013

  Actual Average Record
Temperature  
Mean Temperature 28 °F -  
Max Temperature 30 °F 46 °F 71 °F (2011)
Min Temperature 25 °F 27 °F -2 °F (1978)
Degree Days  
Heating Degree Days 38    
Moisture  
Dew Point 14 °F    
Average Humidity 56    
Maximum Humidity 66    
Minimum Humidity 51    
Precipitation  
Precipitation 0.00 in - - ()
Sea Level Pressure  
Sea Level Pressure 30.34 in    
Wind  
Wind Speed 6 mph (North)    
Max Wind Speed 9 mph    
Max Gust Speed -    
Visibility 10 miles    
Events      
Averages and records for this station are not official NWS values.
T = Trace of Precipitation, MM = Missing Value Source: NWS Daily Summary

Daily Weather History Graph

Daily Weather History Graph

Search for Another Location

Airport:

Trip Planner

Search our weather history database for the weather conditions in past years. The results will help you decide how hot, cold, wet, or windy it might be!

Date:

Astronomy

Feb. 20, 2013 Rise Set
Actual Time 6:40 AM CST 5:41 PM CST
Civil Twilight 6:13 AM CST 6:08 PM CST
Nautical Twilight 5:43 AM CST 6:38 PM CST
Astronomical Twilight 5:12 AM CST 7:09 PM CST
Moon 1:06 PM CST (2/20) 2:57 AM CST (2/20)
Length of Visible Light 11h 54m
Length of Day
11h 01m
Waxing Gibbous, 76% of the Moon is Illuminated
Feb 20
Waxing Gibbous
Feb 25
Full
Mar 4
Last Quarter
Mar 11
New
Mar 19
First Quarter

Hourly Weather History & Observations

Time (CST) Temp. Windchill Dew Point Humidity Pressure Visibility Wind Dir Wind Speed Gust Speed Precip Events Conditions
12:52 AM 28.0 °F 22.8 °F 12.9 °F 53% 30.32 in 10.0 mi WNW 4.6 mph - N/A   Clear
1:52 AM 27.0 °F 20.5 °F 10.9 °F 51% 30.32 in 10.0 mi NW 5.8 mph - N/A   Clear
2:52 AM 26.1 °F 19.4 °F 12.0 °F 55% 30.32 in 10.0 mi NW 5.8 mph - N/A   Clear
3:52 AM 26.1 °F 20.5 °F 12.0 °F 55% 30.31 in 10.0 mi NW 4.6 mph - N/A   Clear
4:52 AM 26.1 °F 20.5 °F 12.0 °F 55% 30.33 in 10.0 mi NNW 4.6 mph - N/A   Clear
5:52 AM 25.0 °F 17.1 °F 12.0 °F 58% 30.35 in 10.0 mi NNW 6.9 mph - N/A   Clear
6:52 AM 25.0 °F 18.1 °F 12.0 °F 58% 30.35 in 10.0 mi North 5.8 mph - N/A   Clear
7:52 AM 25.0 °F 16.3 °F 10.9 °F 55% 30.39 in 10.0 mi NNW 8.1 mph - N/A   Overcast
8:52 AM 26.1 °F 17.6 °F 12.0 °F 55% 30.41 in 10.0 mi NNW 8.1 mph - N/A   Overcast
9:52 AM 28.0 °F 20.0 °F 12.0 °F 51% 30.41 in 10.0 mi NNW 8.1 mph - N/A   Overcast
11:52 AM 28.9 °F 21.9 °F 12.9 °F 51% 30.40 in 10.0 mi Variable 6.9 mph - N/A   Clear
12:52 PM 28.9 °F 23.9 °F 12.9 °F 51% 30.39 in 10.0 mi North 4.6 mph - N/A   Overcast
1:52 PM 30.0 °F 23.2 °F 14.0 °F 51% 30.37 in 10.0 mi North 6.9 mph - N/A   Overcast
2:52 PM 30.0 °F 23.2 °F 14.0 °F 51% 30.33 in 10.0 mi North 6.9 mph - N/A   Overcast
3:52 PM 30.0 °F 23.2 °F 15.1 °F 54% 30.32 in 10.0 mi NE 6.9 mph - N/A   Scattered Clouds
4:52 PM 30.9 °F 22.8 °F 15.1 °F 52% 30.32 in 10.0 mi NE 9.2 mph - N/A   Partly Cloudy
5:52 PM 30.0 °F 22.4 °F 15.1 °F 54% 30.32 in 10.0 mi NNE 8.1 mph - N/A   Mostly Cloudy
6:52 PM 28.0 °F - 16.0 °F 61% 30.32 in 10.0 mi Calm Calm - N/A   Clear
7:52 PM 28.0 °F 24.2 °F 17.1 °F 63% 30.32 in 10.0 mi NNE 3.5 mph - N/A   Clear
9:52 PM 27.0 °F 21.6 °F 16.0 °F 63% 30.34 in 10.0 mi ENE 4.6 mph - N/A   Clear
10:52 PM 27.0 °F 20.5 °F 16.0 °F 63% 30.32 in 10.0 mi NE 5.8 mph - N/A   Clear
11:52 PM 27.0 °F 20.5 °F 17.1 °F 66% 30.32 in 10.0 mi NE 5.8 mph - N/A   Clear